COSMOS 2251 DEB, 34816

Orbit data source: Space-Track

COSMOS 2251 DEB, 34816 is space debris in LEO originally from a launch on Wed, 16 Jun 1993 UTC launched from the Plesetsk Missile And Space Complex (PKMTR). The debris from Iridium 33, an American commercial communications satellite, has been tracked extensively since its accidental collision with the defunct Russian satellite Cosmos 2251 in 2009. This event, occurring at high speed in low Earth orbit (LEO), generated thousands of pieces of space debris, significantly increasing the risk of further collisions. The Iridium 33 debris cloud has impacted space traffic management and orbital debris mitigation strategies, making it a subject of ongoing study in space situational awareness.

Loading next visibility...
Identifier
34816, 1993-036ABF
Orbit
LEO
Country
Flag of CISCIS
Related business
Manufacturer
Unknown
Mission
Spacecraft
Bus & Motor
Unknown
Mass
Unknown
Launch date (UTC)
1993-06-16 (33 years ago)
Launch vehicle
Unknown
Launch site
Plesetsk Missile And Space Complex (PKMTR)
Object type
Payload
Rocket body
Debris
Shape & HBR
Unknown shape, 0.1 m
Radar Cross Section
Small (<0.1 m²)

Expand to show TLE details & history
Last TLE update: 1 day ago

TLE from 1 day ago
0 COSMOS 2251 DEB
1 34816U 93036ABF 25351.82957347  .00001242  00000-0  11038-2 0  9998
2 34816  73.8866 134.8167 0373269 198.4084 290.8064 13.58338046828521
Epoch: 2025-12-17T19:54Z
TLE epoch observation values (Epoch: 2025-12-17T19:54:35.147Z)
Latitude
51.87358°
Longitude
-92.00265°
Altitude
960.565 km
Speed
7.421 km/s
True Right ascension
19h 33m 21s
True Declination
51° 42' 40"
Sunlit
Object was in daylight at epoch
Visualization orbit readout
Latitude
Unknown
Longitude
Unknown
Altitude
Unknown
Speed
Unknown
Apparent Right ascension
Unknown
Apparent Declination
Unknown
Sunlit
N/A
Visualization observer readout
Local Sidereal Time
19:05:50
Azimuth
Unknown
Elevation
Unknown
Doppler factor
Unknown
Orbital elements
Apogee altitude
1,316.332 km
Perigee altitude
762.581 km
Semi-major axis
7,417.593 km
Eccentricity
0.03733
Inclination
73.8866°
RAAN
134.8167°
Arg. of periapsis
198.4084°
True anomaly
286.74407°
Mean anomaly
290.8064°
Eccentric anomaly
288.7816°
Mean motion
3.39742 °/min
Orbital period
105.96 mins
BSTAR
0.0011038
Loading maneuver chart data...
Computing Atmospheric mass density...

Documentation

Showing up to 5 results
|